Regional Weather Roundup
Issued by NWS Little Rock, AR

Home | Current Version | Previous Version | Text Only | Print | Product List | Glossary On
Versions: 1 2 3 4 5 6 7 8 9 10 11 12 13 14 15 16 17 18 19 20 21 22 23 24 25 26 27 28 29 30 31 32 33 34 35 36 37 38 39 40 41 42 43 44 45 46 47 48 49 50
000
ASUS44 KLZK 301705
RWRLZK

WEATHER ROUNDUP FOR ARKANSAS
NATIONAL WEATHER SERVICE LITTLE ROCK AR
1100 AM CST FRI JAN 30 2015

NOTE: "FAIR" INDICATES FEW OR NO CLOUDS BELOW 12,000 FEET WITH NO
SIGNIFICANT WEATHER AND/OR OBSTRUCTIONS TO VISIBILITY.

ARZ001-003-010-029-301800-
NORTHWEST ARKANSAS

CITY           SKY/WX    TMP DP  RH WIND       PRES   REMARKS
FAYETTEVILLE   PTSUNNY   36  24  62 CALM      30.53R
FORT SMITH       N/A     40  28  62 NE5       30.55S
HARRISON       SUNNY     37  24  59 VRB3      30.52S
BENTONVILLE    MOSUNNY   37  23  56 SE3       30.53S
ROGERS         MOSUNNY   37  24  59 S5        30.52R
SILOAM SPGS    PTSUNNY   36  21  55 E3        30.54S
HIGHFILL       MOSUNNY   35  25  66 CALM      30.52S
SPRINGDALE     SUNNY     34  25  69 CALM      30.54R
$$

ARZ004-005-016-301800-
NORTH CENTRAL ARKANSAS

CITY           SKY/WX    TMP DP  RH WIND       PRES   REMARKS
BATESVILLE     SUNNY     39  27  60 NE6       30.55F
FLIPPIN        SUNNY     37  21  52 CALM      30.54F
MTN HOME       SUNNY     36  22  56 SE3       30.53S
$$

ARZ040-041-301800-
WEST CENTRAL ARKANSAS

CITY           SKY/WX    TMP DP  RH WIND       PRES   REMARKS
MENA           MOSUNNY   45  30  57 E5        30.50F
MOUNT IDA      SUNNY     43  27  53 VRB5      30.50F
$$

ARZ009-017-025-026-028-301800-
NORTHEAST ARKANSAS

CITY           SKY/WX    TMP DP  RH WIND       PRES   REMARKS
CORNING        FAIR      37  27  65 NE12      30.57S
JONESBORO      SUNNY     40  27  59 NE13      30.54F
NEWPORT        SUNNY     40  29  65 NE10      30.57S
WALNUT RIDGE   SUNNY     39  25  56 NE8       30.56S
BLYTHEVILLE    SUNNY     42  27  55 N9        30.55S
$$

ARZ022-023-033-042-044-301800-
CENTRAL ARKANSAS

CITY           SKY/WX    TMP DP  RH WIND       PRES   REMARKS
LITTLE ROCK    PTSUNNY   44  25  47 VRB7      30.56S
N LITTLE ROCK  PTSUNNY   43  30  59 NE8       30.56S
JACKSONVILLE   SUNNY     43  27  54 VRB6      30.55S
SEARCY         SUNNY     44  27  51 NE6       30.57R
HOT SPRINGS    SUNNY     44  27  51 N7        30.53F
RUSSELLVILLE   SUNNY     41  27  57 S6        30.55S
CLINTON        FAIR      41  25  52 E6        30.56F
$$

ARZ036-301800-
EAST ARKANSAS

CITY           SKY/WX    TMP DP  RH WIND       PRES   REMARKS
WEST MEMPHIS   SUNNY     43  28  55 NE15      30.52S
$$

ARZ050-053-066-070-073-301800-
SOUTHWEST ARKANSAS

CITY           SKY/WX    TMP DP  RH WIND       PRES   REMARKS
ARKADELPHIA    FAIR      43  31  63 N9        30.55F
CAMDEN         SUNNY     46  28  49 MISG      30.54F
TEXARKANA      SUNNY     45  29  53 E9        30.52S
EL DORADO      SUNNY     45  30  55 NE10      30.52S
DE QUEEN       SUNNY     47  30  51 E7        30.51F
$$

ARZ056-057-069-301800-
SOUTHEAST ARKANSAS

CITY           SKY/WX    TMP DP  RH WIND       PRES   REMARKS
PINE BLUFF     SUNNY     43  29  57 NE10      30.54F
STUTTGART      SUNNY     43  28  56 NE8       30.56S
MONTICELLO     SUNNY     45  29  53 VRB6      30.51F

$$




USA.gov is the U.S. government's official web portal to all federal, state and local government web resources and services.